Danbury, CT

2:28 AM EST on February 23, 2018 (GMT -0500)
Danbury Municipal

Weather History for KDXR - March, 2012

Change the Weather History Date:

Thursday, March 1, 2012

  Actual Average Record
Temperature  
Mean Temperature 33 °F -  
Max Temperature 36 °F 43 °F 65 °F (1972)
Min Temperature 30 °F 23 °F 1 °F (2014)
Degree Days  
Heating Degree Days 32    
Moisture  
Dew Point 32 °F    
Average Humidity 94    
Maximum Humidity 100    
Minimum Humidity 81    
Precipitation  
Precipitation 0.08 in - - ()
Sea Level Pressure  
Sea Level Pressure 29.80 in    
Wind  
Wind Speed 7 mph (NE)    
Max Wind Speed 13 mph    
Max Gust Speed 20 mph    
Visibility 7 miles    
Events Rain    
Averages and records for this station are not official NWS values.
T = Trace of Precipitation, MM = Missing Value Source: NWS Daily Summary

Daily Weather History Graph

Daily Weather History Graph

Search for Another Location

Airport or City:

Trip Planner

Search our weather history database for the weather conditions in past years. The results will help you decide how hot, cold, wet, or windy it might be!

Date:

Astronomy

Mar. 01, 2012 Rise Set
Actual Time 6:27 AM EST 5:45 PM EST
Civil Twilight 5:59 AM EST 6:12 PM EST
Nautical Twilight 5:28 AM EST 6:44 PM EST
Astronomical Twilight 4:55 AM EST 7:17 PM EST
Moon 10:59 AM EST (3/1) 1:27 AM EST (3/1)
Length of Visible Light 12h 12m
Length of Day
11h 17m
First Quarter, 56% of the Moon is Illuminated
Mar 1
First Quarter
Mar 8
Full
Mar 14
Last Quarter
Mar 22
New
Mar 30
First Quarter

Hourly Weather History & Observations

Time (EST) Temp. Windchill Dew Point Humidity Pressure Visibility Wind Dir Wind Speed Gust Speed Precip Events Conditions
12:32 AM 33.8 °F 29.6 °F 33.8 °F 100% 29.79 in 2.5 mi ENE 4.6 mph - N/A   Overcast
12:40 AM 33.8 °F 27.7 °F 33.8 °F 100% 29.79 in 3.0 mi ENE 6.9 mph - N/A   Overcast
12:53 AM 34.0 °F 28.0 °F 34.0 °F 100% 29.79 in 3.0 mi ENE 6.9 mph - N/A   Overcast
1:53 AM 34.0 °F 25.0 °F 33.1 °F 96% 29.74 in 5.0 mi ENE 12.7 mph 19.6 mph N/A   Overcast
2:53 AM 34.0 °F 25.0 °F 34.0 °F 100% 29.72 in 10.0 mi ENE 12.7 mph 19.6 mph 0.00 in   Overcast
3:53 AM 34.0 °F 25.0 °F 34.0 °F 100% 29.70 in 4.0 mi ENE 12.7 mph - 0.05 in Rain Light Rain
4:53 AM 34.0 °F 28.8 °F 34.0 °F 100% 29.73 in 6.0 mi NNE 5.8 mph - 0.02 in   Overcast
5:53 AM 34.0 °F 27.2 °F 34.0 °F 100% 29.69 in 10.0 mi NE 8.1 mph - N/A   Overcast
6:53 AM 34.0 °F 29.8 °F 34.0 °F 100% 29.69 in 10.0 mi Variable 4.6 mph - 0.00 in Rain Light Rain
7:53 AM 35.1 °F 31.0 °F 34.0 °F 96% 29.70 in 5.0 mi ENE 4.6 mph - 0.00 in   Overcast
8:53 AM 35.1 °F 29.3 °F 35.1 °F 100% 29.70 in 4.0 mi NNE 6.9 mph - N/A   Overcast
9:53 AM 35.1 °F 30.1 °F 35.1 °F 100% 29.70 in 5.0 mi ENE 5.8 mph - N/A   Overcast
10:53 AM 35.1 °F 28.6 °F 35.1 °F 100% 29.70 in 5.0 mi ENE 8.1 mph - 0.00 in   Overcast
11:53 AM 36.0 °F 33.3 °F 35.1 °F 97% 29.73 in 6.0 mi NE 3.5 mph - 0.01 in Rain Light Rain
12:53 PM 36.0 °F - 35.1 °F 97% 29.72 in 6.0 mi Calm Calm - 0.00 in   Overcast
1:53 PM 36.0 °F 31.1 °F 35.1 °F 97% 29.74 in 4.0 mi NNE 5.8 mph - N/A   Overcast
2:53 PM 36.0 °F 32.1 °F 35.1 °F 97% 29.77 in 3.0 mi North 4.6 mph - 0.00 in   Overcast
3:53 PM 36.0 °F 32.1 °F 35.1 °F 97% 29.79 in 3.0 mi North 4.6 mph - N/A   Overcast
4:53 PM 36.0 °F 32.1 °F 35.1 °F 97% 29.82 in 4.0 mi North 4.6 mph - N/A   Overcast
5:53 PM 35.1 °F 31.0 °F 34.0 °F 96% 29.85 in 4.0 mi NNE 4.6 mph - N/A   Overcast
6:38 PM 33.8 °F 26.4 °F 32.0 °F 93% 29.86 in 10.0 mi NE 9.2 mph - N/A   Overcast
6:53 PM 34.0 °F 26.0 °F 30.9 °F 89% 29.88 in 10.0 mi ENE 10.4 mph - N/A   Overcast
7:40 PM 33.8 °F 27.0 °F 28.4 °F 81% 29.89 in 10.0 mi NE 8.1 mph - N/A   Overcast
7:53 PM 33.1 °F 26.9 °F 28.9 °F 85% 29.91 in 10.0 mi NE 6.9 mph - N/A   Overcast
8:00 PM 33.8 °F 27.7 °F 28.4 °F 81% 29.90 in 10.0 mi Variable 6.9 mph - N/A   Overcast
8:41 PM 32.0 °F 24.2 °F 28.4 °F 87% 29.92 in 10.0 mi ENE 9.2 mph - N/A   Overcast
8:53 PM 32.0 °F 24.8 °F 28.0 °F 85% 29.94 in 10.0 mi NE 8.1 mph - N/A   Overcast
9:53 PM 32.0 °F 25.6 °F 27.0 °F 82% 29.96 in 10.0 mi NE 6.9 mph - N/A   Overcast
10:53 PM 30.9 °F 25.2 °F 26.1 °F 82% 29.98 in 10.0 mi NE 5.8 mph - N/A   Overcast
11:53 PM 30.9 °F 27.5 °F 26.1 °F 82% 30.00 in 10.0 mi ENE 3.5 mph - N/A   Overcast